Flag for Montserrat Weather past 2 weeks in Brades, Montserrat

Now
77 °F

Partly sunny.


Feels Like: 78 °F
Forecast: N/A
Wind: 3 mph from East

Location: Vc Bird International Antigua Airport

Current Time: Jan 31, 2015 at 5:59:24 PM

Latest Report: Jan 31, 2015 at 5:00 PM


Visibility: N/A

Pressure: 29.98 "Hg

Humidity: 83%

Dew point: 72 °F

Location of BradesLocation

Historic Weather in Brades — Graph

°F

Brades temperature yesterday

Maximum temperature yesterday: 82 °F (at 1:00 PM)
Minimum temperature yesterday: 73 °F (at 7:00 AM)
Average temperature yesterday: 78 °F

Past Weeks' High & Low Weather Summary

 TemperatureHumidityPressure
High82 °F (Jan 16, 5:00 PM)94% (Jan 18, 2:00 AM)30.07 "Hg (Jan 18, 2:00 AM)
Low70 °F (Jan 19, 4:00 AM)58% (Jan 29, 11:00 AM)29.92 "Hg (Jan 21, 3:00 PM)
Average77 °F77%29.99 "Hg
* Reported Jan 16 4:00 PM — Jan 31 4:00 PM, Brades, Weather by CustomWeather, © 2014

Note: Actual official high and low records may vary slightly from our data, if they occured in-between our weather recording intervals... More about our weather records

Advertising

Brades weather history for previous 24 hours

 ConditionsComfort  
Time TempWeatherWind HumidityBarometerVisibility
4:00 PM
Jan 31
79 °FPassing clouds.3 mph84%29.95 "HgN/A
3:00 PM73 °FSprinkles. Partly sunny.3 mph89%29.98 "HgN/A
2:22 PM73 °FRain showers. Partly sunny.9 mph89%29.98 "Hg2 mi
2:00 PM77 °FSprinkles. Partly sunny.6 mph89%29.98 "HgN/A
1:00 PM81 °FPartly sunny.6 mph70%29.98 "HgN/A
12:00 PM81 °FScattered clouds.9 mph70%30.01 "HgN/A
11:00 AM79 °FSprinkles. Scattered clouds.5 mph74%30.01 "HgN/A
10:00 AM81 °FPartly sunny.5 mph74%30.01 "HgN/A
9:00 AM79 °FScattered clouds.3 mph74%30.01 "HgN/A
8:00 AM75 °FPassing clouds.2 mph83%30.01 "HgN/A
7:00 AM70 °FPassing clouds.3 mph94%29.98 "HgN/A
6:00 AM70 °FPassing clouds.2 mph94%29.95 "HgN/A
5:00 AM70 °FPassing clouds.2 mph94%29.95 "HgN/A
4:00 AM72 °FPassing clouds.2 mph88%29.95 "HgN/A
3:00 AM72 °FPassing clouds.3 mph88%29.95 "HgN/A
2:00 AM70 °FPassing clouds.No wind94%29.95 "HgN/A
1:00 AM72 °FPassing clouds.1 mph88%29.98 "HgN/A
12:00 AM72 °FPassing clouds.3 mph88%29.98 "HgN/A
11:00 PM
Jan 30
75 °FPassing clouds.5 mph78%29.98 "HgN/A
10:00 PM75 °FPassing clouds.5 mph83%29.98 "HgN/A
9:00 PM77 °FPassing clouds.5 mph74%29.98 "HgN/A
8:00 PM77 °FPassing clouds.5 mph74%29.98 "HgN/A
7:00 PM75 °FPassing clouds.6 mph83%29.95 "HgN/A
6:00 PM77 °FScattered clouds.6 mph74%29.95 "HgN/A
5:00 PM79 °FPassing clouds.6 mph74%29.95 "HgN/A
Weather by CustomWeather, © 2014

See weather overviewHow to use our weather pages